Cosmos 1626 - Orbit

View from above orbital plane
View from above orbital plane
View from above satellite
View from above satellite

Ground track
Ground track

The orbit data is extracted from the following two-line orbital elements,

1 15494U 85009A   13140.86910978  .00004723  00000-0  27679-3 0  2894
2 15494 082.4815 288.2783 0003268 166.3229 353.0576 15.11577728542991
Epoch (UTC): 20 May 2013 20:51:31
Eccentricity: 0.0003268
inclination: 82.4815°
perigee height: 529 km
apogee height: 533 km
right ascension of ascending node: 288.2783°
argument of perigee: 166.3229°
revolutions per day: 15.11577728
mean anomaly at epoch: 353.0576°
orbit number at epoch: 54299

The dashed part of the orbit path shows where the satellite is in the earth's shadow,  

Developed and maintained by Chris Peat, Heavens-Above GmbH. Please read the updated FAQ before sending e-mail. Imprint. DLR